Location: Bord�res
(43.2000°N, 0.2167°W)
Time: 13:55:59
(UTC+00:00)

Meteor 2-12 Rocket - Pass Details

Date: 03 March 2021
Orbit: 936 x 957 km, 82.5° (Epoch: 20 April)

Event Time Altitude Azimuth Distance (km) Brightness Sun altitude
Rises 18:48:13 0° 180° (S) 3,582 7.5 -10.9°
Reaches altitude 10° 18:50:41 10° 178° (S) 2,644 6.7 -11.4°
Maximum altitude 18:56:42 72° 95° (E) 988 4.4 -12.5°
Drops below altitude 10° 19:02:46 10° 12° (NNE) 2,675 6.7 -13.6°
Sets 19:05:17 0° 11° (N) 3,627 7.4 -14.0°
